Location: Unspecified
(0.0000°N, 0.0000°E)
Time: 13:11:59
(UTC+00:00)

Hubble Space Telescope - Pass Details

Date: 23 September 2017
Orbit: 538 x 541 km, 28.5° (Epoch: 24 September)

Event Time Altitude Azimuth Distance (km) Brightness Sun altitude
Exits shadow 03:49:54 19° 132° (SE) 1,303 3.1 -30.6°
Drops below altitude 10° 03:52:06 10° 102° (ESE) 1,788 4.3 -30.1°
Sets 03:54:47 0° 85° (E) 2,677 5.5 -29.4°
